QPF
0.00 0.00 0.00 0.00 0.00 0.00 0.00 0.00 0.00 0.00 0.00 0.00 0.00 0.01 0.03 0.03 0.03 0.03 0.02 0.02 0.01 0.01 0.01 0.02 0.03 0.03 0.03 0.04 0.05 0.04 0.08 0.10 0.07 0.05 0.04 0.05 0.07 0.09 0.08 0.06 0.08 0.13 0.18 0.15
0.00 0.00 0.00 0.00 0.00 0.00 0.00 0.00 0.00 0.00 0.00 0.00 0.00 0.01 0.02 0.03 0.03 0.03 0.02 0.02 0.02 0.01 0.02 0.04 0.04 0.04 0.04 0.03 0.02 0.02 0.04 0.04 0.03 0.05 0.06 0.07 0.08 0.09 0.07 0.07 0.11 0.15 0.16 0.14
0.00 0.00 0.00 0.00 0.00 0.00 0.00 0.00 0.00 0.00 0.00 0.00 0.00 0.00 0.01 0.03 0.03 0.02 0.04 0.05 0.05 0.03 0.04 0.05 0.04 0.04 0.03 0.02 0.01 0.01 0.02 0.02 0.02 0.03 0.05 0.05 0.07 0.09 0.10 0.09 0.09 0.10 0.10 0.10
0.00 0.00 0.00 0.00 0.01 0.01 0.00 0.00 0.00 0.00 0.00 0.00 0.00 0.01 0.01 0.02 0.02 0.02 0.03 0.03 0.04 0.05 0.08 0.09 0.05 0.05 0.03 0.02 0.01 0.01 0.02 0.02 0.03 0.04 0.04 0.04 0.06 0.08 0.11 0.12 0.12 0.12 0.10 0.08
0.00 0.00 0.00 0.01 0.01 0.01 0.00 0.01 0.00 0.01 0.01 0.01 0.01 0.01 0.01 0.02 0.02 0.02 0.02 0.04 0.05 0.08 0.12 0.13 0.09 0.06 0.04 0.03 0.03 0.03 0.03 0.03 0.04 0.05 0.05 0.06 0.08 0.09 0.10 0.10 0.08 0.09 0.10 0.08
0.00 0.00 0.00 0.01 0.01 0.00 0.00 0.01 0.00 0.01 0.01 0.01 0.02 0.01 0.01 0.01 0.02 0.02 0.03 0.03 0.05 0.07 0.07 0.06 0.06 0.05 0.04 0.05 0.05 0.04 0.04 0.05 0.06 0.06 0.05 0.06 0.09 0.09 0.08 0.06 0.04 0.05 0.06 0.04
0.00 0.00 0.00 0.01 0.01 0.01 0.01 0.01 0.01 0.01 0.01 0.02 0.02 0.02 0.01 0.01 0.02 0.02 0.02 0.02 0.03 0.05 0.08 0.06 0.05 0.04 0.05 0.06 0.06 0.05 0.06 0.06 0.07 0.06 0.05 0.06 0.07 0.06 0.05 0.04 0.03 0.02 0.02 0.02
0.00 0.00 0.00 0.00 0.01 0.02 0.02 0.02 0.01 0.01 0.01 0.01 0.02 0.02 0.02 0.01 0.01 0.01 0.02 0.02 0.03 0.04 0.05 0.05 0.04 0.04 0.04 0.05 0.05 0.05 0.06 0.05 0.05 0.04 0.04 0.05 0.06 0.05 0.04 0.03 0.02 0.02 0.01 0.02
0.00 0.00 0.01 0.01 0.02 0.03 0.03 0.03 0.02 0.02 0.02 0.01 0.01 0.01 0.02 0.02 0.02 0.02 0.02 0.02 0.03 0.03 0.04 0.05 0.05 0.04 0.04 0.04 0.03 0.02 0.03 0.03 0.04 0.03 0.02 0.03 0.04 0.05 0.04 0.02 0.02 0.02 0.02 0.03
0.01 0.01 0.01 0.01 0.02 0.03 0.04 0.04 0.03 0.03 0.04 0.04 0.03 0.02 0.02 0.02 0.02 0.02 0.02 0.03 0.04 0.05 0.06 0.07 0.07 0.05 0.06 0.05 0.03 0.01 0.01 0.02 0.03 0.03 0.02 0.03 0.04 0.05 0.06 0.04 0.03 0.02 0.02 0.02
0.01 0.01 0.02 0.02 0.02 0.03 0.03 0.04 0.04 0.04 0.03 0.04 0.04 0.04 0.03 0.04 0.04 0.04 0.04 0.05 0.07 0.09 0.10 0.09 0.08 0.06 0.05 0.05 0.02 0.01 0.02 0.02 0.04 0.03 0.03 0.04 0.04 0.06 0.09 0.08 0.07 0.05 0.04 0.03
0.02 0.03 0.03 0.03 0.02 0.02 0.03 0.03 0.03 0.03 0.04 0.06 0.05 0.03 0.04 0.04 0.05 0.07 0.08 0.09 0.12 0.12 0.11 0.10 0.08 0.06 0.04 0.04 0.03 0.02 0.02 0.03 0.05 0.04 0.03 0.03 0.05 0.07 0.09 0.10 0.09 0.07 0.05 0.03
0.03 0.04 0.04 0.02 0.02 0.02 0.02 0.03 0.03 0.03 0.04 0.05 0.05 0.05 0.05 0.07 0.10 0.12 0.13 0.15 0.17 0.18 0.15 0.13 0.10 0.05 0.03 0.02 0.02 0.03 0.04 0.05 0.08 0.06 0.04 0.05 0.04 0.05 0.07 0.09 0.10 0.08 0.05 0.05
0.02 0.03 0.03 0.02 0.02 0.02 0.03 0.03 0.05 0.05 0.03 0.03 0.03 0.04 0.04 0.07 0.10 0.13 0.14 0.15 0.16 0.16 0.15 0.13 0.10 0.05 0.03 0.02 0.03 0.04 0.04 0.05 0.06 0.05 0.04 0.05 0.06 0.06 0.06 0.07 0.07 0.06 0.05 0.05
0.03 0.03 0.03 0.03 0.03 0.03 0.03 0.04 0.07 0.10 0.06 0.04 0.03 0.04 0.04 0.05 0.07 0.11 0.12 0.11 0.13 0.15 0.17 0.12 0.08 0.06 0.04 0.03 0.03 0.04 0.04 0.04 0.05 0.03 0.04 0.08 0.09 0.08 0.06 0.06 0.05 0.05 0.04 0.04
0.02 0.03 0.03 0.03 0.03 0.04 0.04 0.05 0.10 0.12 0.10 0.05 0.05 0.05 0.05 0.05 0.06 0.07 0.09 0.09 0.09 0.12 0.15 0.11 0.07 0.05 0.03 0.02 0.03 0.03 0.03 0.04 0.04 0.03 0.03 0.06 0.09 0.08 0.07 0.05 0.05 0.05 0.06 0.05
0.04 0.04 0.05 0.06 0.04 0.04 0.05 0.06 0.09 0.10 0.10 0.08 0.06 0.06 0.06 0.05 0.05 0.05 0.06 0.05 0.06 0.08 0.08 0.09 0.07 0.04 0.02 0.02 0.02 0.01 0.01 0.02 0.02 0.02 0.03 0.04 0.05 0.06 0.06 0.05 0.06 0.06 0.05 0.05
0.04 0.05 0.06 0.06 0.06 0.05 0.04 0.05 0.06 0.08 0.09 0.09 0.07 0.06 0.06 0.05 0.05 0.05 0.04 0.04 0.04 0.06 0.09 0.07 0.05 0.03 0.02 0.02 0.03 0.02 0.01 0.01 0.01 0.01 0.02 0.04 0.07 0.08 0.07 0.06 0.06 0.06 0.05 0.04
0.04 0.05 0.07 0.07 0.06 0.06 0.06 0.06 0.06 0.08 0.08 0.10 0.09 0.08 0.06 0.04 0.03 0.03 0.03 0.04 0.04 0.05 0.06 0.07 0.07 0.04 0.02 0.02 0.02 0.02 0.02 0.01 0.01 0.01 0.01 0.02 0.03 0.04 0.05 0.04 0.04 0.05 0.05 0.04
0.02 0.02 0.03 0.06 0.07 0.07 0.07 0.08 0.08 0.07 0.06 0.08 0.07 0.06 0.04 0.03 0.02 0.02 0.02 0.02 0.02 0.02 0.03 0.04 0.04 0.04 0.03 0.03 0.02 0.02 0.01 0.01 0.01 0.01 0.01 0.01 0.01 0.02 0.05 0.06 0.05 0.05 0.05 0.06
0.01 0.01 0.02 0.04 0.05 0.07 0.08 0.08 0.08 0.06 0.06 0.06 0.06 0.05 0.03 0.03 0.03 0.02 0.02 0.02 0.02 0.01 0.02 0.03 0.03 0.03 0.03 0.02 0.02 0.01 0.01 0.01 0.01 0.01 0.01 0.02 0.02 0.02 0.04 0.05 0.07 0.07 0.07 0.07
0.01 0.01 0.02 0.03 0.05 0.06 0.08 0.08 0.07 0.07 0.06 0.05 0.06 0.05 0.04 0.02 0.02 0.02 0.03 0.03 0.02 0.01 0.01 0.02 0.02 0.02 0.02 0.02 0.02 0.02 0.03 0.03 0.03 0.03 0.03 0.03 0.03 0.03 0.04 0.04 0.05 0.05 0.05 0.04
0.01 0.01 0.01 0.02 0.04 0.06 0.06 0.06 0.06 0.05 0.05 0.05 0.06 0.05 0.03 0.02 0.02 0.02 0.04 0.03 0.02 0.01 0.01 0.01 0.01 0.02 0.02 0.02 0.02 0.03 0.04 0.03 0.03 0.03 0.03 0.03 0.03 0.03 0.03 0.02 0.02 0.02 0.01 0.01
0.01 0.01 0.01 0.01 0.03 0.04 0.05 0.05 0.05 0.04 0.04 0.05 0.06 0.05 0.03 0.03 0.02 0.02 0.02 0.03 0.02 0.02 0.01 0.01 0.01 0.02 0.02 0.02 0.02 0.03 0.03 0.02 0.02 0.02 0.03 0.03 0.02 0.02 0.02 0.02 0.01 0.01 0.00 0.00
0.01 0.01 0.01 0.02 0.03 0.04 0.05 0.05 0.04 0.03 0.03 0.04 0.04 0.03 0.03 0.03 0.03 0.03 0.02 0.02 0.01 0.02 0.01 0.01 0.01 0.01 0.01 0.01 0.01 0.01 0.01 0.01 0.01 0.01 0.01 0.01 0.01 0.01 0.01 0.00 0.00 0.00 0.00 0.00
0.03 0.02 0.01 0.01 0.02 0.03 0.05 0.04 0.03 0.02 0.02 0.02 0.02 0.02 0.02 0.02 0.02 0.02 0.02 0.02 0.02 0.01 0.01 0.01 0.01 0.01 0.01 0.00 0.00 0.00 0.00 0.00 0.01 0.01 0.01 0.00 0.00 0.00 0.00 0.00 0.00 0.00 0.00 0.00
0.03 0.03 0.02 0.01 0.01 0.02 0.03 0.03 0.03 0.02 0.01 0.01 0.01 0.01 0.01 0.01 0.01 0.01 0.01 0.01 0.01 0.01 0.01 0.01 0.01 0.01 0.00 0.00 0.00 0.01 0.01 0.01 0.01 0.01 0.01 0.01 0.00 0.00 0.00 0.00 0.00 0.00 0.00 0.00
MSLP
1014.06 1014.76 1015.53 1016.32 1017.11 1017.84 1018.46 1018.94 1019.27 1019.46 1019.58 1019.66 1019.78 1019.99 1020.32 1020.80 1021.40 1022.07 1022.76 1023.42 1023.99 1024.44 1024.77 1024.99 1025.14 1025.26 1025.41 1025.60 1025.86 1026.16 1026.50 1026.84 1027.14 1027.37 1027.52 1027.56 1027.53 1027.42 1027.28 1027.12 1026.96 1026.81 1026.67 1026.55
1014.58 1015.19 1015.79 1016.37 1016.92 1017.41 1017.83 1018.17 1018.45 1018.67 1018.89 1019.14 1019.47 1019.89 1020.43 1021.06 1021.76 1022.48 1023.18 1023.80 1024.33 1024.73 1025.03 1025.26 1025.44 1025.62 1025.83 1026.11 1026.44 1026.81 1027.20 1027.57 1027.89 1028.12 1028.27 1028.32 1028.29 1028.19 1028.06 1027.91 1027.76 1027.62 1027.49 1027.37
1015.19 1015.66 1016.08 1016.44 1016.76 1017.04 1017.29 1017.53 1017.77 1018.05 1018.39 1018.80 1019.32 1019.94 1020.65 1021.41 1022.19 1022.94 1023.63 1024.21 1024.67 1025.03 1025.29 1025.50 1025.70 1025.92 1026.19 1026.52 1026.90 1027.33 1027.75 1028.15 1028.49 1028.74 1028.90 1028.97 1028.96 1028.89 1028.79 1028.67 1028.54 1028.42 1028.30 1028.19
1015.85 1016.15 1016.37 1016.52 1016.63 1016.73 1016.85 1017.01 1017.25 1017.59 1018.04 1018.61 1019.31 1020.10 1020.94 1021.81 1022.65 1023.42 1024.09 1024.63 1025.05 1025.36 1025.59 1025.79 1025.99 1026.22 1026.52 1026.88 1027.30 1027.75 1028.20 1028.61 1028.96 1029.23 1029.41 1029.51 1029.54 1029.51 1029.46 1029.39 1029.30 1029.21 1029.11 1029.00
1016.47 1016.59 1016.61 1016.57 1016.51 1016.46 1016.49 1016.61 1016.86 1017.26 1017.82 1018.53 1019.37 1020.29 1021.25 1022.20 1023.09 1023.88 1024.53 1025.05 1025.44 1025.72 1025.93 1026.12 1026.32 1026.57 1026.87 1027.25 1027.67 1028.12 1028.57 1028.98 1029.33 1029.62 1029.82 1029.96 1030.03 1030.07 1030.07 1030.05 1030.01 1029.96 1029.88 1029.78
1016.96 1016.91 1016.76 1016.56 1016.36 1016.23 1016.19 1016.30 1016.58 1017.05 1017.70 1018.51 1019.45 1020.47 1021.51 1022.52 1023.44 1024.24 1024.90 1025.41 1025.79 1026.07 1026.29 1026.48 1026.69 1026.95 1027.26 1027.63 1028.04 1028.48 1028.91 1029.30 1029.65 1029.94 1030.16 1030.33 1030.45 1030.54 1030.60 1030.63 1030.65 1030.63 1030.58 1030.49
1017.25 1017.05 1016.78 1016.47 1016.20 1016.02 1015.97 1016.10 1016.42 1016.95 1017.67 1018.55 1019.55 1020.62 1021.70 1022.73 1023.67 1024.48 1025.15 1025.68 1026.07 1026.38 1026.62 1026.85 1027.08 1027.35 1027.67 1028.03 1028.42 1028.83 1029.23 1029.60 1029.93 1030.21 1030.45 1030.64 1030.80 1030.93 1031.04 1031.12 1031.17 1031.19 1031.16 1031.09
1017.29 1017.01 1016.66 1016.32 1016.03 1015.87 1015.85 1016.03 1016.40 1016.98 1017.74 1018.65 1019.67 1020.75 1021.82 1022.84 1023.77 1024.58 1025.26 1025.81 1026.25 1026.60 1026.89 1027.16 1027.44 1027.74 1028.07 1028.42 1028.80 1029.17 1029.54 1029.88 1030.19 1030.46 1030.70 1030.90 1031.08 1031.24 1031.37 1031.48 1031.56 1031.60 1031.60 1031.54
1017.11 1016.80 1016.45 1016.14 1015.91 1015.81 1015.87 1016.11 1016.55 1017.16 1017.94 1018.85 1019.84 1020.87 1021.90 1022.87 1023.77 1024.56 1025.25 1025.82 1026.30 1026.71 1027.07 1027.40 1027.73 1028.07 1028.42 1028.78 1029.14 1029.49 1029.83 1030.14 1030.43 1030.68 1030.91 1031.11 1031.29 1031.46 1031.60 1031.73 1031.82 1031.87 1031.88 1031.84
1016.78 1016.49 1016.20 1015.98 1015.86 1015.88 1016.05 1016.39 1016.88 1017.53 1018.30 1019.17 1020.10 1021.05 1021.99 1022.88 1023.71 1024.46 1025.13 1025.72 1026.24 1026.70 1027.13 1027.53 1027.92 1028.31 1028.69 1029.06 1029.42 1029.76 1030.08 1030.37 1030.63 1030.87 1031.08 1031.27 1031.44 1031.60 1031.74 1031.86 1031.94 1031.99 1032.01 1031.98
1016.38 1016.16 1015.99 1015.91 1015.94 1016.11 1016.41 1016.85 1017.41 1018.08 1018.83 1019.63 1020.47 1021.30 1022.12 1022.91 1023.65 1024.34 1024.98 1025.56 1026.10 1026.61 1027.10 1027.56 1028.01 1028.44 1028.85 1029.24 1029.61 1029.95 1030.26 1030.54 1030.78 1031.00 1031.20 1031.38 1031.53 1031.67 1031.79 1031.89 1031.96 1032.00 1032.02 1032.00
1016.02 1015.91 1015.88 1015.96 1016.16 1016.48 1016.92 1017.46 1018.08 1018.76 1019.47 1020.20 1020.93 1021.65 1022.34 1023.00 1023.63 1024.24 1024.83 1025.39 1025.94 1026.47 1026.99 1027.50 1027.99 1028.46 1028.90 1029.32 1029.70 1030.04 1030.35 1030.63 1030.87 1031.08 1031.26 1031.43 1031.57 1031.68 1031.78 1031.85 1031.90 1031.93 1031.94 1031.93
1015.79 1015.79 1015.90 1016.13 1016.48 1016.95 1017.52 1018.14 1018.81 1019.49 1020.17 1020.83 1021.45 1022.05 1022.61 1023.15 1023.68 1024.20 1024.72 1025.25 1025.78 1026.31 1026.85 1027.38 1027.90 1028.39 1028.86 1029.28 1029.68 1030.03 1030.34 1030.62 1030.86 1031.08 1031.26 1031.41 1031.54 1031.64 1031.71 1031.76 1031.79 1031.80 1031.81 1031.81
1015.73 1015.82 1016.04 1016.39 1016.88 1017.46 1018.12 1018.81 1019.51 1020.19 1020.83 1021.43 1021.96 1022.45 1022.91 1023.35 1023.78 1024.22 1024.68 1025.16 1025.66 1026.18 1026.71 1027.24 1027.76 1028.25 1028.72 1029.16 1029.55 1029.91 1030.23 1030.52 1030.77 1030.99 1031.18 1031.33 1031.45 1031.54 1031.60 1031.64 1031.65 1031.65 1031.65 1031.65
1015.85 1015.99 1016.28 1016.71 1017.28 1017.93 1018.65 1019.38 1020.09 1020.77 1021.38 1021.92 1022.39 1022.81 1023.19 1023.55 1023.91 1024.29 1024.69 1025.13 1025.59 1026.08 1026.59 1027.10 1027.60 1028.08 1028.53 1028.96 1029.35 1029.71 1030.04 1030.33 1030.59 1030.82 1031.02 1031.18 1031.30 1031.39 1031.45 1031.48 1031.48 1031.48 1031.47 1031.47
1016.12 1016.27 1016.59 1017.05 1017.64 1018.32 1019.04 1019.78 1020.49 1021.15 1021.74 1022.25 1022.68 1023.06 1023.40 1023.72 1024.04 1024.38 1024.74 1025.14 1025.58 1026.03 1026.50 1026.97 1027.44 1027.89 1028.32 1028.72 1029.10 1029.45 1029.77 1030.07 1030.34 1030.58 1030.79 1030.96 1031.10 1031.20 1031.26 1031.29 1031.30 1031.29 1031.28 1031.28
1016.50 1016.64 1016.93 1017.37 1017.94 1018.59 1019.30 1020.01 1020.69 1021.33 1021.90 1022.39 1022.81 1023.18 1023.51 1023.82 1024.13 1024.46 1024.81 1025.19 1025.59 1026.01 1026.44 1026.88 1027.30 1027.71 1028.10 1028.47 1028.83 1029.16 1029.47 1029.77 1030.04 1030.29 1030.51 1030.70 1030.84 1030.95 1031.03 1031.07 1031.08 1031.08 1031.07 1031.07
1016.97 1017.06 1017.30 1017.68 1018.18 1018.78 1019.42 1020.08 1020.73 1021.33 1021.88 1022.37 1022.80 1023.18 1023.52 1023.85 1024.18 1024.51 1024.86 1025.23 1025.62 1026.01 1026.41 1026.80 1027.19 1027.55 1027.91 1028.24 1028.57 1028.88 1029.17 1029.46 1029.73 1029.98 1030.20 1030.40 1030.55 1030.67 1030.76 1030.80 1030.83 1030.83 1030.82 1030.82
1017.49 1017.51 1017.68 1017.98 1018.40 1018.91 1019.47 1020.07 1020.66 1021.22 1021.75 1022.24 1022.67 1023.08 1023.45 1023.81 1024.17 1024.52 1024.89 1025.26 1025.64 1026.02 1026.39 1026.75 1027.10 1027.43 1027.75 1028.05 1028.34 1028.63 1028.91 1029.18 1029.43 1029.67 1029.89 1030.08 1030.24 1030.36 1030.45 1030.50 1030.53 1030.53 1030.52 1030.51
1018.02 1017.98 1018.07 1018.29 1018.62 1019.03 1019.51 1020.03 1020.55 1021.08 1021.58 1022.06 1022.50 1022.93 1023.33 1023.72 1024.11 1024.49 1024.87 1025.26 1025.63 1026.00 1026.36 1026.70 1027.03 1027.34 1027.63 1027.91 1028.17 1028.44 1028.69 1028.93 1029.17 1029.39 1029.59 1029.76 1029.90 1030.02 1030.09 1030.14 1030.17 1030.17 1030.15 1030.13
1018.52 1018.44 1018.47 1018.61 1018.85 1019.18 1019.57 1020.01 1020.47 1020.95 1021.42 1021.88 1022.33 1022.77 1023.19 1023.61 1024.01 1024.42 1024.82 1025.21 1025.60 1025.96 1026.32 1026.65 1026.97 1027.26 1027.54 1027.80 1028.05 1028.29 1028.52 1028.74 1028.94 1029.13 1029.29 1029.44 1029.55 1029.64 1029.69 1029.73 1029.73 1029.72 1029.69 1029.65
1018.95 1018.84 1018.82 1018.90 1019.08 1019.33 1019.66 1020.03 1020.44 1020.87 1021.31 1021.75 1022.19 1022.63 1023.06 1023.48 1023.91 1024.32 1024.73 1025.13 1025.52 1025.89 1026.25 1026.58 1026.90 1027.19 1027.46 1027.72 1027.95 1028.17 1028.38 1028.56 1028.73 1028.87 1029.00 1029.09 1029.16 1029.21 1029.23 1029.23 1029.21 1029.18 1029.12 1029.06
1019.23 1019.11 1019.07 1019.12 1019.26 1019.47 1019.74 1020.07 1020.44 1020.83 1021.24 1021.66 1022.09 1022.52 1022.94 1023.37 1023.79 1024.20 1024.61 1025.01 1025.40 1025.78 1026.14 1026.48 1026.80 1027.10 1027.37 1027.62 1027.85 1028.05 1028.23 1028.38 1028.50 1028.60 1028.67 1028.71 1028.72 1028.72 1028.69 1028.65 1028.59 1028.52 1028.44 1028.34
1019.28 1019.18 1019.14 1019.19 1019.31 1019.51 1019.77 1020.07 1020.42 1020.79 1021.19 1021.59 1022.01 1022.42 1022.84 1023.25 1023.66 1024.07 1024.47 1024.86 1025.25 1025.62 1025.98 1026.33 1026.65 1026.96 1027.23 1027.48 1027.70 1027.88 1028.03 1028.14 1028.22 1028.26 1028.27 1028.24 1028.20 1028.13 1028.05 1027.96 1027.86 1027.75 1027.63 1027.49
1019.06 1018.98 1018.98 1019.05 1019.19 1019.40 1019.67 1019.98 1020.34 1020.71 1021.11 1021.51 1021.92 1022.33 1022.73 1023.13 1023.53 1023.92 1024.31 1024.69 1025.06 1025.43 1025.78 1026.13 1026.45 1026.75 1027.02 1027.26 1027.46 1027.62 1027.74 1027.81 1027.84 1027.82 1027.77 1027.68 1027.57 1027.45 1027.31 1027.16 1027.01 1026.86 1026.70 1026.54
1018.54 1018.50 1018.55 1018.67 1018.86 1019.11 1019.42 1019.77 1020.15 1020.56 1020.97 1021.39 1021.81 1022.22 1022.62 1023.01 1023.39 1023.76 1024.13 1024.49 1024.84 1025.19 1025.53 1025.86 1026.17 1026.46 1026.72 1026.94 1027.12 1027.25 1027.33 1027.35 1027.33 1027.26 1027.15 1027.01 1026.84 1026.66 1026.47 1026.27 1026.08 1025.89 1025.69 1025.50
1017.76 1017.79 1017.89 1018.07 1018.33 1018.65 1019.02 1019.43 1019.86 1020.31 1020.77 1021.22 1021.65 1022.07 1022.48 1022.86 1023.23 1023.59 1023.93 1024.27 1024.60 1024.92 1025.23 1025.53 1025.82 1026.08 1026.31 1026.50 1026.64 1026.74 1026.78 1026.76 1026.69 1026.57 1026.41 1026.22 1026.01 1025.78 1025.54 1025.31 1025.08 1024.86 1024.64 1024.41
Thickness
5717 5728 5732 5734 5733 5730 5729 5723 5718 5727 5733 5750 5760 5766 5771 5773 5776 5777 5778 5778 5778 5777 5776 5776 5775 5773 5771 5769 5767 5764 5760 5757 5755 5752 5750 5747 5744 5742 5740 5737 5735 5732 5730 5728
5712 5722 5728 5727 5731 5731 5731 5729 5730 5734 5738 5756 5761 5764 5765 5767 5769 5770 5771 5772 5773 5772 5771 5770 5770 5768 5766 5764 5763 5760 5756 5753 5751 5748 5745 5743 5740 5737 5735 5732 5729 5727 5725 5723
5693 5710 5718 5710 5724 5728 5730 5733 5733 5730 5742 5754 5754 5757 5760 5762 5763 5765 5767 5768 5767 5766 5766 5765 5764 5763 5761 5760 5758 5755 5751 5749 5747 5744 5741 5738 5736 5733 5730 5727 5724 5722 5720 5719
5682 5697 5688 5709 5731 5734 5731 5733 5736 5740 5745 5749 5752 5755 5758 5760 5761 5762 5763 5763 5762 5761 5760 5759 5759 5758 5758 5755 5752 5748 5746 5744 5743 5740 5737 5734 5731 5728 5725 5722 5719 5717 5715 5714
5669 5675 5688 5710 5724 5727 5724 5725 5735 5736 5740 5744 5747 5750 5751 5757 5759 5759 5759 5758 5758 5757 5756 5754 5753 5753 5751 5748 5746 5743 5741 5739 5738 5735 5733 5730 5727 5724 5721 5718 5715 5712 5710 5708
5666 5671 5674 5700 5723 5730 5726 5716 5734 5736 5736 5737 5740 5733 5741 5753 5754 5754 5754 5753 5752 5751 5751 5749 5748 5747 5745 5742 5739 5737 5737 5735 5734 5732 5730 5726 5723 5720 5717 5714 5710 5707 5704 5702
5663 5668 5679 5704 5717 5722 5704 5712 5731 5733 5734 5734 5734 5738 5743 5746 5747 5747 5747 5747 5746 5744 5742 5742 5742 5741 5737 5735 5733 5733 5732 5730 5729 5727 5725 5722 5719 5715 5712 5709 5705 5701 5698 5695
5656 5662 5674 5703 5709 5706 5709 5722 5726 5728 5730 5730 5731 5734 5736 5737 5737 5738 5738 5738 5737 5736 5734 5734 5734 5732 5730 5727 5727 5726 5725 5723 5722 5720 5719 5717 5713 5709 5706 5702 5698 5694 5691 5688
5664 5671 5687 5695 5700 5707 5712 5715 5720 5723 5726 5727 5726 5726 5727 5728 5728 5728 5728 5728 5728 5726 5725 5725 5724 5724 5721 5720 5720 5720 5718 5716 5714 5713 5711 5708 5706 5702 5698 5695 5691 5687 5684 5680
5662 5673 5683 5691 5697 5703 5708 5712 5717 5719 5721 5721 5720 5720 5719 5719 5719 5718 5718 5718 5718 5716 5715 5713 5714 5715 5714 5714 5714 5712 5710 5708 5707 5704 5701 5698 5696 5694 5690 5686 5683 5679 5676 5672
5655 5667 5676 5686 5690 5695 5701 5706 5709 5711 5713 5714 5713 5712 5712 5710 5709 5708 5708 5708 5708 5707 5706 5705 5704 5705 5706 5706 5706 5704 5702 5700 5698 5695 5692 5689 5685 5682 5680 5677 5675 5672 5668 5665
5649 5660 5664 5672 5681 5688 5692 5696 5700 5702 5703 5705 5706 5705 5704 5702 5700 5699 5698 5699 5698 5698 5697 5696 5695 5696 5697 5697 5697 5696 5693 5691 5688 5686 5683 5679 5675 5670 5666 5665 5664 5661 5658 5656
5649 5657 5660 5667 5673 5679 5682 5687 5690 5693 5694 5695 5696 5697 5695 5693 5691 5691 5690 5690 5690 5688 5687 5687 5686 5686 5686 5687 5688 5687 5684 5682 5680 5677 5674 5670 5667 5664 5659 5654 5652 5649 5647 5646
5645 5650 5654 5660 5664 5670 5674 5677 5680 5682 5684 5685 5686 5686 5686 5685 5683 5682 5681 5681 5681 5679 5678 5677 5678 5677 5678 5678 5678 5676 5675 5673 5671 5668 5665 5662 5659 5656 5652 5649 5645 5639 5636 5634
5638 5643 5647 5653 5657 5661 5665 5668 5669 5671 5673 5675 5676 5676 5676 5674 5672 5672 5672 5672 5671 5670 5668 5668 5668 5668 5669 5669 5668 5667 5666 5663 5661 5659 5656 5653 5650 5647 5644 5640 5636 5631 5627 5624
5631 5637 5641 5645 5648 5652 5656 5658 5659 5661 5663 5664 5664 5665 5666 5666 5664 5663 5662 5662 5661 5660 5659 5659 5659 5659 5659 5660 5659 5658 5657 5655 5652 5650 5646 5643 5641 5638 5635 5632 5628 5624 5621 5617
5623 5628 5632 5635 5639 5643 5647 5650 5652 5654 5655 5655 5655 5656 5656 5657 5655 5653 5653 5653 5653 5652 5651 5652 5652 5651 5651 5651 5650 5649 5647 5645 5644 5641 5638 5635 5632 5629 5626 5624 5620 5616 5612 5608
5620 5624 5627 5630 5633 5635 5639 5643 5645 5646 5646 5647 5648 5649 5648 5648 5647 5646 5645 5645 5644 5643 5643 5644 5644 5644 5643 5642 5641 5639 5637 5635 5633 5631 5628 5625 5622 5619 5617 5613 5610 5606 5602 5598
5614 5617 5620 5623 5627 5630 5632 5634 5636 5638 5639 5640 5640 5640 5640 5639 5639 5638 5637 5636 5635 5634 5634 5635 5635 5636 5635 5633 5632 5630 5628 5625 5623 5620 5618 5615 5612 5609 5606 5603 5600 5596 5592 5589
5606 5610 5613 5616 5620 5622 5624 5626 5627 5628 5630 5630 5630 5630 5629 5629 5629 5629 5628 5626 5625 5625 5625 5626 5625 5625 5625 5623 5622 5620 5618 5616 5613 5610 5607 5605 5602 5598 5596 5593 5590 5587 5583 5579
5598 5602 5605 5608 5611 5615 5617 5617 5618 5619 5620 5621 5621 5621 5620 5620 5620 5620 5619 5617 5616 5616 5617 5617 5617 5616 5615 5613 5612 5610 5608 5606 5604 5600 5597 5595 5592 5589 5586 5583 5580 5577 5573 5569
5590 5594 5598 5601 5603 5605 5608 5608 5609 5610 5611 5611 5612 5611 5611 5610 5610 5610 5609 5609 5608 5609 5609 5609 5608 5607 5606 5604 5602 5600 5599 5597 5594 5591 5588 5586 5583 5580 5577 5574 5571 5567 5563 5559
5584 5587 5590 5593 5595 5596 5598 5599 5600 5602 5603 5603 5602 5603 5602 5602 5601 5602 5600 5599 5600 5601 5601 5600 5599 5598 5596 5595 5593 5591 5589 5587 5585 5583 5580 5577 5575 5572 5569 5566 5562 5559 5555 5551
5577 5579 5581 5584 5586 5588 5588 5589 5591 5593 5593 5594 5594 5594 5594 5593 5592 5592 5593 5592 5593 5593 5592 5590 5590 5589 5587 5585 5583 5581 5579 5578 5576 5574 5572 5569 5566 5564 5560 5557 5554 5550 5547 5543
5570 5572 5575 5577 5579 5580 5581 5581 5582 5583 5584 5584 5584 5584 5585 5586 5585 5584 5584 5585 5584 5584 5582 5581 5580 5579 5578 5576 5574 5572 5571 5569 5567 5566 5563 5561 5558 5556 5553 5549 5546 5542 5538 5534
5565 5567 5569 5571 5572 5573 5573 5574 5574 5575 5576 5576 5575 5576 5576 5577 5576 5576 5576 5576 5576 5575 5574 5572 5571 5570 5569 5567 5566 5564 5563 5561 5559 5557 5555 5553 5550 5548 5545 5541 5538 5534 5530 5526
5559 5561 5562 5563 5564 5566 5567 5567 5567 5568 5569 5570 5569 5569 5569 5569 5569 5569 5569 5568 5567 5566 5565 5564 5563 5562 5561 5559 5558 5557 5555 5554 5552 5550 5547 5545 5543 5540 5537 5534 5530 5526 5522 5518